Погода в Лаве

Россия / Ульяновская область     54°28′47″N   46°54′06″E
темп.,
°C
ветер,
м/с
пор.,
м/с
влажн.,
%
обл.,
%
осадки,
мм/ч
давл.,
гПа
погр.,
м
13 июня, вс
вс1301:00+15ююв229398 0.5 101027
04:00+14ююв22957 0.5 101038
07:00+17ю27914 0.0 1011230
10:00+21ююз476991 0.8 1011751
13:00+22ююз577392 2.6 10111080
16:00+23ююз686676 3.8 10111303
19:00+21ююз49835 1.9 1011682
22:00+17ю3109333 2.3 1012237
14 июня, пн
пн1401:00+16ююв359521 0.0 1013100
04:00+15ю23962 0.0 101464
07:00+18ююз25885 0.0 1015213
10:00+22ююз34704 0.0 1015869
13:00+25зюз34615 0.8 10161343
16:00+24з346945 1.5 1015992
19:00+22з13848 1.1 1015111
22:00+18ю00865 1.3 101511
15 июня, вт
вт1501:00+17с118931 0.0 101511
04:00+16св119289 0.0 101511
07:00+19св138845 0.0 1014125
10:00+23всв226812 0.0 1014688
13:00+26ююв11585 0.0 10131362
16:00+26ю2159100 0.4 10121229
19:00+21юв2384100 2.1 101241
22:00+19ю2289100 2.1 101121
16 июня, ср
ср1601:00+18юв119043 0.0 101111
04:00+17юв119032 0.0 101111
07:00+20вюв128337 0.0 1010104
10:00+24с116586 0.0 1010558
13:00+27ссз225385 0.0 10091345
16:00+27зсз335143 0.1 10081764
19:00+20сз397876 1.0 1008229
22:00+18юз2396100 6.1 101154
17 июня, чт
чт1701:00+17сз399685 0.6 1011272
04:00+14ссз23928 0.6 101462
07:00+15ссз38885 0.0 1016323
10:00+19ссз46540 0.0 10171042
13:00+21ссз46410 0.0 10181999
16:00+21сз564715 0.0 10192022
19:00+19сз486024 0.0 1020562
22:00+14ссз22798 0.0 102123